| time (UTC) | temp C | wind direction | speed KPH | gust KPH | rain 1hr cm | rain 24hr cm | rain mn cm | humidity % | barometer mb |
| 20260510130822 | 13 | 251 | 1.6 | 1.6 | 0.00 | 0.00 | 0.00 | 94 | 1012.5 |
| 20260510130319 | 13 | 213 | 4.8 | 4.8 | 0.00 | 0.00 | 0.00 | 94 | 1012.3 |
| 20260510125816 | 13 | 228 | 0.0 | 0.0 | 0.00 | 0.00 | 0.00 | 95 | 1012.5 |
| 20260510125312 | 12 | 146 | 1.6 | 1.6 | 0.00 | 0.00 | 0.00 | 94 | 1012.4 |
| 20260510124809 | 12 | 208 | 1.6 | 1.6 | 0.00 | 0.00 | 0.00 | 95 | 1012.6 |
| 20260510124306 | 12 | 109 | 0.0 | 0.0 | 0.00 | 0.00 | 0.00 | 96 | 1012.5 |
| 20260510123801 | 12 | 219 | 1.6 | 1.6 | 0.00 | 0.00 | 0.00 | 97 | 1012.3 |
| 20260510123257 | 12 | 221 | 1.6 | 3.2 | 0.00 | 0.00 | 0.00 | 98 | 1012.0 |
| 20260510122753 | 11 | 203 | 1.6 | 3.2 | 0.00 | 0.00 | 0.00 | 98 | 1012.1 |
| 20260510122250 | 11 | 122 | 0.0 | 0.0 | 0.00 | 0.00 | 0.00 | 98 | 1012.2 |
| 20260510121746 | 11 | 214 | 3.2 | 3.2 | 0.00 | 0.00 | 0.00 | 99 | 1012.1 |
| 20260510121244 | 11 | 325 | 0.0 | 0.0 | 0.00 | 0.00 | 0.00 | 99 | 1012.1 |
| 20260510120741 | 11 | 256 | 0.0 | 0.0 | 0.00 | 0.00 | 0.00 | 99 | 1011.9 |
| 20260510120238 | 11 | 255 | 0.0 | 0.0 | 0.00 | 0.00 | 0.00 | 99 | 1012.1 |
| 20260510115733 | 11 | 288 | 0.0 | 0.0 | 0.00 | 0.00 | 0.00 | 99 | 1012.2 |
| 20260510115232 | 10 | 312 | 1.6 | 1.6 | 0.00 | 0.00 | 0.00 | 99 | 1012.2 |
| 20260510114726 | 11 | 283 | 0.0 | 0.0 | 0.00 | 0.00 | 0.00 | 99 | 1011.9 |
| 20260510114224 | 11 | 259 | 0.0 | 0.0 | 0.00 | 0.00 | 0.00 | 99 | 1011.9 |
| 20260510113719 | 10 | 310 | 0.0 | 0.0 | 0.00 | 0.00 | 0.00 | 99 | 1012.0 |
| 20260510113216 | 10 | 310 | 0.0 | 0.0 | 0.00 | 0.00 | 0.00 | 99 | 1012.0 |
| 20260510112712 | 10 | 310 | 0.0 | 0.0 | 0.00 | 0.00 | 0.00 | 99 | 1011.9 |
| 20260510112210 | 10 | 310 | 0.0 | 0.0 | 0.00 | 0.00 | 0.00 | 99 | 1011.7 |
| 20260510111705 | 10 | 310 | 0.0 | 0.0 | 0.00 | 0.00 | 0.00 | 99 | 1011.7 |
| 20260510111203 | 10 | 310 | 0.0 | 0.0 | 0.00 | 0.00 | 0.00 | 99 | 1011.7 |
| 20260510110703 | 10 | 310 | 0.0 | 0.0 | 0.00 | 0.00 | 0.00 | 99 | 1011.8 |
| 20260510110201 | 10 | 310 | 0.0 | 0.0 | 0.00 | 0.00 | 0.00 | 99 | 1011.7 |
| 20260510105701 | 10 | 310 | 0.0 | 0.0 | 0.00 | 0.00 | 0.00 | 99 | 1011.8 |
| 20260510105201 | 10 | 310 | 0.0 | 0.0 | 0.00 | 0.00 | 0.00 | 99 | 1011.9 |
| 20260510104658 | 10 | 310 | 0.0 | 0.0 | 0.00 | 0.00 | 0.00 | 99 | 1011.7 |
| 20260510104155 | 10 | 310 | 0.0 | 0.0 | 0.00 | 0.00 | 0.00 | 99 | 1011.7 |
| 20260510103651 | 10 | 310 | 0.0 | 0.0 | 0.00 | 0.00 | 0.00 | 99 | 1011.5 |
| 20260510103148 | 10 | 310 | 0.0 | 0.0 | 0.00 | 0.00 | 0.00 | 99 | 1011.5 |
| 20260510102648 | 10 | 311 | 0.0 | 0.0 | 0.00 | 0.00 | 0.00 | 99 | 1011.5 |
| 20260510102145 | 10 | 311 | 0.0 | 0.0 | 0.00 | 0.00 | 0.00 | 99 | 1011.5 |
| 20260510101642 | 10 | 311 | 0.0 | 0.0 | 0.00 | 0.00 | 0.00 | 99 | 1011.5 |
| 20260510101140 | 10 | 313 | 0.0 | 0.0 | 0.00 | 0.00 | 0.00 | 99 | 1011.4 |
| 20260510100636 | 10 | 211 | 0.0 | 0.0 | 0.00 | 0.00 | 0.00 | 99 | 1011.3 |
| 20260510100134 | 10 | 211 | 0.0 | 0.0 | 0.00 | 0.00 | 0.00 | 99 | 1011.4 |
| 20260510095629 | 10 | 210 | 0.0 | 1.6 | 0.00 | 0.00 | 0.00 | 99 | 1011.2 |
| 20260510095124 | 10 | 66 | 0.0 | 0.0 | 0.00 | 0.00 | 0.00 | 99 | 1011.3 |
| 20260510094623 | 10 | 224 | 0.0 | 0.0 | 0.00 | 0.00 | 0.00 | 99 | 1011.3 |
| 20260510094119 | 10 | 185 | 1.6 | 1.6 | 0.00 | 0.00 | 0.00 | 99 | 1011.3 |
| 20260510093616 | 10 | 229 | 0.0 | 1.6 | 0.00 | 0.00 | 0.00 | 99 | 1011.1 |
| 20260510093112 | 10 | 72 | 0.0 | 1.6 | 0.00 | 0.00 | 0.00 | 99 | 1010.7 |
| 20260510092609 | 10 | 262 | 0.0 | 1.6 | 0.00 | 0.00 | 0.00 | 99 | 1010.9 |
| 20260510092109 | 10 | 202 | 0.0 | 0.0 | 0.00 | 0.00 | 0.00 | 99 | 1010.9 |
| 20260510091606 | 10 | 318 | 0.0 | 0.0 | 0.00 | 0.00 | 0.00 | 99 | 1010.9 |
| 20260510091102 | 10 | 318 | 0.0 | 0.0 | 0.00 | 0.00 | 0.00 | 99 | 1010.6 |
| 20260510090559 | 10 | 260 | 0.0 | 1.6 | 0.00 | 0.00 | 0.00 | 99 | 1010.6 |
| 20260510090055 | 10 | 240 | 0.0 | 1.6 | 0.00 | 0.00 | 0.00 | 99 | 1010.4 |
| 20260510085549 | 10 | 184 | 4.8 | 6.4 | 0.00 | 0.00 | 0.00 | 99 | 1010.4 |
| 20260510085046 | 10 | 82 | 0.0 | 1.6 | 0.00 | 0.00 | 0.00 | 99 | 1010.5 |
| 20260510084543 | 10 | 122 | 0.0 | 1.6 | 0.00 | 0.00 | 0.00 | 99 | 1010.5 |
| 20260510084039 | 10 | 249 | 1.6 | 1.6 | 0.00 | 0.00 | 0.00 | 99 | 1010.7 |
| 20260510083536 | 10 | 221 | 1.6 | 1.6 | 0.00 | 0.00 | 0.00 | 99 | 1010.4 |
| 20260510083032 | 10 | 64 | 0.0 | 0.0 | 0.00 | 0.00 | 0.00 | 99 | 1010.4 |
| 20260510082529 | 10 | 11 | 0.0 | 1.6 | 0.00 | 0.00 | 0.00 | 99 | 1010.5 |
| 20260510082025 | 10 | 97 | 0.0 | 0.0 | 0.00 | 0.00 | 0.00 | 99 | 1010.7 |
| 20260510081520 | 10 | 225 | 0.0 | 1.6 | 0.00 | 0.00 | 0.00 | 99 | 1010.7 |
| 20260510081016 | 10 | 48 | 0.0 | 1.6 | 0.00 | 0.00 | 0.00 | 99 | 1010.4 |
| 20260510080514 | 10 | 240 | 3.2 | 4.8 | 0.00 | 0.00 | 0.00 | 99 | 1010.8 |
| 20260510080012 | 10 | 209 | 1.6 | 1.6 | 0.00 | 0.00 | 0.00 | 99 | 1010.8 |
| 20260510075509 | 10 | 21 | 3.2 | 3.2 | 0.00 | 0.00 | 0.00 | 99 | 1010.8 |
| 20260510075006 | 10 | 214 | 3.2 | 3.2 | 0.00 | 0.00 | 0.00 | 99 | 1010.9 |
| 20260510074504 | 10 | 228 | 0.0 | 1.6 | 0.00 | 0.00 | 0.00 | 99 | 1011.1 |
| 20260510073959 | 10 | 319 | 0.0 | 0.0 | 0.00 | 0.00 | 0.00 | 99 | 1011.0 |
| 20260510073455 | 10 | 263 | 0.0 | 1.6 | 0.00 | 0.00 | 0.00 | 99 | 1011.0 |
| 20260510072952 | 10 | 246 | 0.0 | 1.6 | 0.00 | 0.00 | 0.00 | 99 | 1011.0 |
| 20260510072449 | 10 | 261 | 1.6 | 1.6 | 0.00 | 0.00 | 0.00 | 99 | 1010.9 |
| 20260510071944 | 10 | 204 | 1.6 | 3.2 | 0.00 | 0.00 | 0.00 | 99 | 1011.4 |
| 20260510071441 | 10 | 225 | 1.6 | 1.6 | 0.00 | 0.00 | 0.00 | 99 | 1011.2 |
| 20260510070939 | 10 | 254 | 1.6 | 1.6 | 0.00 | 0.00 | 0.00 | 99 | 1011.2 |
| 20260510070436 | 10 | 287 | 0.0 | 0.0 | 0.00 | 0.00 | 0.00 | 99 | 1011.5 |
| 20260510065931 | 10 | 285 | 0.0 | 0.0 | 0.00 | 0.00 | 0.00 | 99 | 1011.6 |
| 20260510065428 | 10 | 286 | 0.0 | 0.0 | 0.00 | 0.00 | 0.00 | 99 | 1011.5 |
| 20260510064924 | 10 | 286 | 0.0 | 0.0 | 0.00 | 0.00 | 0.00 | 99 | 1011.4 |
| 20260510064422 | 10 | 232 | 0.0 | 1.6 | 0.00 | 0.00 | 0.00 | 99 | 1011.5 |
| 20260510063919 | 10 | 209 | 0.0 | 1.6 | 0.00 | 0.00 | 0.00 | 99 | 1011.3 |
| 20260510063415 | 10 | 219 | 1.6 | 1.6 | 0.00 | 0.00 | 0.00 | 99 | 1011.8 |
| 20260510062913 | 10 | 319 | 0.0 | 0.0 | 0.00 | 0.00 | 0.00 | 99 | 1011.5 |
| 20260510062408 | 10 | 296 | 0.0 | 0.0 | 0.00 | 0.00 | 0.00 | 99 | 1011.1 |
| 20260510061903 | 10 | 272 | 0.0 | 0.0 | 0.00 | 0.00 | 0.00 | 99 | 1010.9 |
| 20260510061400 | 10 | 272 | 0.0 | 0.0 | 0.00 | 0.00 | 0.00 | 99 | 1010.9 |
| 20260510060856 | 10 | 258 | 0.0 | 0.0 | 0.00 | 0.00 | 0.00 | 99 | 1010.9 |
| 20260510060353 | 10 | 249 | 0.0 | 0.0 | 0.00 | 0.00 | 0.00 | 99 | 1011.2 |
| 20260510055849 | 10 | 252 | 0.0 | 0.0 | 0.00 | 0.00 | 0.00 | 99 | 1011.2 |
| 20260510055349 | 10 | 253 | 1.6 | 1.6 | 0.00 | 0.00 | 0.00 | 99 | 1011.2 |
| 20260510054848 | 10 | 314 | 0.0 | 0.0 | 0.00 | 0.00 | 0.00 | 99 | 1011.0 |
| 20260510054344 | 10 | 253 | 0.0 | 0.0 | 0.00 | 0.00 | 0.00 | 99 | 1011.0 |
| 20260510053839 | 10 | 253 | 0.0 | 0.0 | 0.00 | 0.00 | 0.00 | 99 | 1011.1 |
| 20260510053335 | 10 | 260 | 0.0 | 0.0 | 0.00 | 0.00 | 0.00 | 99 | 1011.1 |
| 20260510052831 | 10 | 269 | 0.0 | 0.0 | 0.00 | 0.00 | 0.00 | 99 | 1010.8 |
| 20260510052327 | 10 | 284 | 0.0 | 1.6 | 0.00 | 0.00 | 0.00 | 99 | 1011.1 |
| 20260510051824 | 10 | 291 | 0.0 | 0.0 | 0.00 | 0.00 | 0.00 | 99 | 1011.1 |
| 20260510051321 | 10 | 291 | 0.0 | 0.0 | 0.00 | 0.00 | 0.00 | 99 | 1011.2 |
| 20260510050818 | 10 | 291 | 0.0 | 0.0 | 0.00 | 0.00 | 0.00 | 99 | 1011.1 |
| 20260510050314 | 10 | 292 | 0.0 | 0.0 | 0.00 | 0.00 | 0.00 | 99 | 1010.9 |
| 20260510045811 | 10 | 291 | 0.0 | 0.0 | 0.00 | 0.00 | 0.00 | 99 | 1010.8 |
| 20260510045308 | 10 | 291 | 0.0 | 0.0 | 0.00 | 0.00 | 0.00 | 99 | 1010.9 |
| 20260510044805 | 10 | 291 | 0.0 | 0.0 | 0.00 | 0.00 | 0.00 | 99 | 1010.7 |
| 20260510044302 | 10 | 291 | 0.0 | 0.0 | 0.00 | 0.00 | 0.00 | 99 | 1011.0 |
| 20260510043758 | 10 | 291 | 0.0 | 0.0 | 0.00 | 0.00 | 0.00 | 99 | 1011.0 |
| 20260510043254 | 10 | 291 | 0.0 | 0.0 | 0.00 | 0.00 | 0.00 | 99 | 1010.9 |
| 20260510042752 | 10 | 291 | 0.0 | 0.0 | 0.00 | 0.00 | 0.00 | 99 | 1011.0 |
| 20260510042247 | 10 | 291 | 0.0 | 0.0 | 0.00 | 0.00 | 0.00 | 99 | 1010.9 |
| 20260510041744 | 10 | 284 | 0.0 | 0.0 | 0.00 | 0.00 | 0.00 | 99 | 1010.9 |
| 20260510041242 | 10 | 282 | 0.0 | 0.0 | 0.00 | 0.00 | 0.00 | 99 | 1011.1 |
| 20260510040739 | 10 | 282 | 0.0 | 0.0 | 0.00 | 0.00 | 0.00 | 99 | 1010.6 |
| 20260510040236 | 10 | 282 | 0.0 | 0.0 | 0.00 | 0.00 | 0.00 | 99 | 1010.9 |
| 20260510035731 | 10 | 282 | 0.0 | 0.0 | 0.00 | 1.17 | 1.17 | 99 | 1010.7 |
| 20260510035227 | 10 | 282 | 0.0 | 0.0 | 0.00 | 1.17 | 1.17 | 99 | 1011.0 |
| 20260510034723 | 10 | 282 | 0.0 | 0.0 | 0.00 | 1.17 | 1.17 | 99 | 1010.6 |
| 20260510034221 | 10 | 282 | 0.0 | 0.0 | 0.00 | 1.17 | 1.17 | 99 | 1010.6 |
| 20260510033717 | 10 | 282 | 0.0 | 0.0 | 0.00 | 1.17 | 1.17 | 99 | 1010.7 |
| 20260510033215 | 10 | 282 | 0.0 | 0.0 | 0.00 | 1.17 | 1.17 | 99 | 1010.9 |
| 20260510032711 | 10 | 309 | 0.0 | 1.6 | 0.00 | 1.17 | 1.17 | 99 | 1010.8 |
| 20260510032207 | 10 | 302 | 0.0 | 0.0 | 0.00 | 1.17 | 1.17 | 99 | 1010.8 |
| 20260510031701 | 11 | 302 | 0.0 | 0.0 | 0.00 | 1.17 | 1.17 | 99 | 1010.8 |
| 20260510031159 | 11 | 302 | 0.0 | 0.0 | 0.00 | 1.17 | 1.17 | 99 | 1010.9 |
| 20260510030658 | 11 | 302 | 0.0 | 0.0 | 0.00 | 1.17 | 1.17 | 99 | 1011.1 |
| 20260510030156 | 11 | 299 | 0.0 | 1.6 | 0.00 | 1.17 | 1.17 | 99 | 1011.2 |
| 20260510025653 | 11 | 299 | 0.0 | 0.0 | 0.00 | 1.17 | 1.17 | 99 | 1011.1 |
| 20260510025150 | 11 | 299 | 0.0 | 0.0 | 0.00 | 1.17 | 1.17 | 99 | 1011.0 |
| 20260510024647 | 10 | 300 | 0.0 | 0.0 | 0.00 | 1.17 | 1.17 | 99 | 1010.8 |
| 20260510024143 | 10 | 297 | 0.0 | 0.0 | 0.00 | 1.17 | 1.17 | 99 | 1010.7 |
| 20260510023639 | 10 | 297 | 0.0 | 0.0 | 0.00 | 1.17 | 1.17 | 98 | 1010.6 |
| 20260510023137 | 10 | 297 | 0.0 | 0.0 | 0.00 | 1.17 | 1.17 | 98 | 1010.8 |
| 20260510022637 | 11 | 297 | 0.0 | 0.0 | 0.00 | 1.17 | 1.17 | 98 | 1010.7 |
| 20260510022132 | 11 | 297 | 0.0 | 0.0 | 0.00 | 1.17 | 1.17 | 98 | 1010.7 |
| 20260510021628 | 11 | 297 | 0.0 | 0.0 | 0.00 | 1.17 | 1.17 | 98 | 1010.5 |
| 20260510021126 | 11 | 299 | 0.0 | 0.0 | 0.00 | 1.17 | 1.17 | 98 | 1010.5 |
| 20260510020626 | 11 | 299 | 0.0 | 0.0 | 0.00 | 1.17 | 1.17 | 98 | 1010.6 |
| 20260510020121 | 11 | 299 | 0.0 | 0.0 | 0.00 | 1.17 | 1.17 | 98 | 1010.4 |
| 20260510015618 | 11 | 299 | 0.0 | 0.0 | 0.00 | 1.17 | 1.17 | 98 | 1010.5 |
| 20260510015114 | 11 | 299 | 0.0 | 0.0 | 0.00 | 1.17 | 1.17 | 98 | 1010.6 |
| 20260510014610 | 11 | 299 | 0.0 | 0.0 | 0.00 | 1.17 | 1.17 | 97 | 1011.0 |
| 20260510014108 | 11 | 279 | 0.0 | 1.6 | 0.00 | 1.17 | 1.17 | 97 | 1010.8 |
| 20260510013602 | 11 | 266 | 1.6 | 1.6 | 0.00 | 1.17 | 1.17 | 97 | 1010.8 |
| 20260510013058 | 11 | 256 | 0.0 | 0.0 | 0.00 | 1.17 | 1.17 | 97 | 1010.7 |
| 20260510012557 | 11 | 19 | 0.0 | 0.0 | 0.00 | 1.17 | 1.17 | 97 | 1010.7 |
| 20260510012054 | 12 | 21 | 0.0 | 0.0 | 0.00 | 1.17 | 1.17 | 97 | 1010.4 |
| 20260510011553 | 12 | 99 | 0.0 | 0.0 | 0.00 | 1.17 | 1.17 | 97 | 1010.5 |
| 20260510011049 | 12 | 238 | 0.0 | 0.0 | 0.00 | 1.17 | 1.17 | 97 | 1010.3 |
| 20260510010546 | 12 | 251 | 0.0 | 0.0 | 0.00 | 1.17 | 1.17 | 97 | 1010.5 |
| 20260510010043 | 12 | 254 | 1.6 | 1.6 | 0.00 | 1.17 | 1.17 | 97 | 1010.1 |
| 20260510005539 | 12 | 252 | 0.0 | 0.0 | 0.00 | 1.17 | 1.17 | 97 | 1010.1 |
| 20260510005037 | 12 | 212 | 3.2 | 3.2 | 0.00 | 1.17 | 1.17 | 97 | 1010.3 |
| 20260510004534 | 12 | 335 | 0.0 | 0.0 | 0.00 | 1.17 | 1.17 | 97 | 1010.3 |
| 20260510004032 | 12 | 286 | 0.0 | 0.0 | 0.00 | 1.17 | 1.17 | 97 | 1010.1 |
| 20260510003529 | 12 | 326 | 1.6 | 1.6 | 0.00 | 1.17 | 1.17 | 97 | 1010.0 |
| 20260510003024 | 12 | 247 | 0.0 | 0.0 | 0.00 | 1.17 | 1.17 | 97 | 1010.0 |
| 20260510002520 | 12 | 248 | 0.0 | 0.0 | 0.00 | 1.17 | 1.17 | 97 | 1009.9 |
| 20260510002017 | 12 | 247 | 0.0 | 0.0 | 0.00 | 1.17 | 1.17 | 97 | 1009.8 |
| 20260510001514 | 12 | 249 | 0.0 | 0.0 | 0.00 | 1.17 | 1.17 | 97 | 1010.0 |
| 20260510001012 | 12 | 253 | 0.0 | 0.0 | 0.00 | 1.17 | 1.17 | 96 | 1009.9 |
| 20260510000512 | 12 | 291 | 0.0 | 0.0 | 0.00 | 1.17 | 1.17 | 96 | 1009.5 |
| 20260510000010 | 12 | 268 | 0.0 | 1.6 | 0.00 | 1.17 | 1.17 | 96 | 1009.5 |
| 20260509235507 | 12 | 274 | 0.0 | 1.6 | 0.00 | 1.17 | 1.17 | 96 | 1009.3 |
| 20260509235003 | 12 | 168 | 0.0 | 1.6 | 0.00 | 1.17 | 1.17 | 96 | 1009.6 |
| 20260509234459 | 12 | 208 | 3.2 | 3.2 | 0.00 | 1.17 | 1.17 | 96 | 1009.6 |
| 20260509233957 | 12 | 250 | 0.0 | 0.0 | 0.00 | 1.17 | 1.17 | 96 | 1009.4 |
| 20260509233454 | 12 | 250 | 0.0 | 0.0 | 0.00 | 1.17 | 1.17 | 96 | 1009.3 |
| 20260509232950 | 13 | 229 | 0.0 | 1.6 | 0.00 | 1.17 | 1.17 | 96 | 1009.3 |
| 20260509232448 | 13 | 81 | 1.6 | 1.6 | 0.00 | 1.17 | 1.17 | 96 | 1009.3 |
| 20260509231944 | 13 | 177 | 1.6 | 1.6 | 0.00 | 1.17 | 1.17 | 95 | 1009.2 |
| 20260509231441 | 13 | 264 | 0.0 | 0.0 | 0.00 | 1.17 | 1.17 | 95 | 1009.4 |
| 20260509230939 | 13 | 219 | 0.0 | 1.6 | 0.00 | 1.17 | 1.17 | 96 | 1009.2 |
| 20260509230435 | 13 | 277 | 0.0 | 0.0 | 0.00 | 1.17 | 1.17 | 96 | 1009.4 |
| 20260509225931 | 13 | 92 | 1.6 | 1.6 | 0.00 | 1.17 | 1.17 | 96 | 1009.4 |
| 20260509225428 | 13 | 298 | 0.0 | 0.0 | 0.00 | 1.17 | 1.17 | 96 | 1009.3 |
| 20260509224924 | 13 | 195 | 0.0 | 0.0 | 0.00 | 1.17 | 1.17 | 96 | 1009.4 |
| 20260509224419 | 13 | 230 | 0.0 | 0.0 | 0.00 | 1.17 | 1.17 | 96 | 1009.5 |
| 20260509223917 | 13 | 206 | 1.6 | 3.2 | 0.00 | 1.17 | 1.17 | 96 | 1009.4 |
| 20260509223414 | 13 | 250 | 0.0 | 1.6 | 0.00 | 1.17 | 1.17 | 96 | 1009.4 |
| 20260509222911 | 13 | 307 | 0.0 | 0.0 | 0.00 | 1.17 | 1.17 | 97 | 1009.3 |
| 20260509222406 | 13 | 306 | 0.0 | 0.0 | 0.00 | 1.17 | 1.17 | 97 | 1009.5 |
| 20260509221901 | 13 | 305 | 0.0 | 0.0 | 0.00 | 1.17 | 1.17 | 97 | 1009.4 |
| 20260509221359 | 12 | 308 | 0.0 | 0.0 | 0.00 | 1.17 | 1.17 | 97 | 1009.5 |
| 20260509220855 | 13 | 308 | 0.0 | 0.0 | 0.00 | 1.17 | 1.17 | 97 | 1009.5 |
| 20260509220351 | 13 | 297 | 0.0 | 0.0 | 0.00 | 1.17 | 1.17 | 97 | 1009.4 |
| 20260509215847 | 13 | 299 | 0.0 | 0.0 | 0.00 | 1.17 | 1.17 | 97 | 1009.3 |
| 20260509215343 | 13 | 292 | 0.0 | 0.0 | 0.00 | 1.17 | 1.17 | 97 | 1009.4 |
| 20260509214840 | 13 | 252 | 0.0 | 0.0 | 0.00 | 1.17 | 1.17 | 97 | 1009.4 |
| 20260509214338 | 13 | 231 | 0.0 | 1.6 | 0.00 | 1.17 | 1.17 | 97 | 1009.5 |
| 20260509213835 | 13 | 268 | 0.0 | 0.0 | 0.00 | 1.17 | 1.17 | 97 | 1009.6 |
| 20260509213330 | 13 | 333 | 0.0 | 0.0 | 0.00 | 1.17 | 1.17 | 97 | 1009.6 |
| 20260509212828 | 13 | 303 | 1.6 | 1.6 | 0.00 | 1.17 | 1.17 | 97 | 1009.5 |
| 20260509212326 | 13 | 235 | 1.6 | 1.6 | 0.00 | 1.17 | 1.17 | 97 | 1009.7 |
| 20260509211821 | 13 | 258 | 1.6 | 1.6 | 0.00 | 1.17 | 1.17 | 97 | 1009.8 |
| 20260509211317 | 13 | 244 | 1.6 | 1.6 | 0.00 | 1.17 | 1.17 | 98 | 1009.6 |
| 20260509210814 | 12 | 211 | 0.0 | 0.0 | 0.18 | 1.17 | 1.17 | 98 | 1009.7 |
| 20260509210312 | 12 | 203 | 1.6 | 3.2 | 0.18 | 1.17 | 1.17 | 98 | 1009.7 |
| 20260509205811 | 12 | 230 | 3.2 | 3.2 | 0.00 | 1.14 | 1.14 | 98 | 1009.6 |
| 20260509205307 | 12 | 264 | 0.0 | 1.6 | 0.00 | 1.14 | 1.14 | 98 | 1009.6 |
| 20260509204802 | 12 | 280 | 0.0 | 0.0 | 0.00 | 1.14 | 1.14 | 98 | 1009.8 |
| 20260509204258 | 12 | 58 | 0.0 | 1.6 | 0.13 | 1.14 | 1.14 | 98 | 1010.1 |
| 20260509203754 | 12 | 248 | 1.6 | 1.6 | 0.13 | 1.14 | 1.14 | 98 | 1010.0 |
| 20260509203252 | 12 | 61 | 0.0 | 0.0 | 0.00 | 1.12 | 1.12 | 98 | 1010.0 |
| 20260509202748 | 12 | 268 | 0.0 | 0.0 | 0.00 | 1.12 | 1.12 | 98 | 1010.2 |
| 20260509202245 | 12 | 273 | 0.0 | 1.6 | 0.18 | 1.12 | 1.12 | 98 | 1010.4 |
| 20260509201744 | 12 | 305 | 0.0 | 0.0 | 0.18 | 1.12 | 1.12 | 98 | 1010.4 |
| 20260509201241 | 12 | 273 | 0.0 | 0.0 | 0.00 | 1.09 | 1.09 | 98 | 1010.3 |
| 20260509200738 | 12 | 243 | 0.0 | 0.0 | 0.13 | 1.09 | 1.09 | 98 | 1010.4 |
| 20260509200238 | 12 | 311 | 0.0 | 1.6 | 0.13 | 1.09 | 1.09 | 98 | 1010.6 |
| 20260509195734 | 12 | 335 | 0.0 | 0.0 | 0.00 | 1.07 | 1.07 | 98 | 1010.7 |
| 20260509195229 | 12 | 289 | 0.0 | 0.0 | 0.18 | 1.07 | 1.07 | 98 | 1010.8 |
| 20260509194724 | 12 | 273 | 0.0 | 0.0 | 0.18 | 1.07 | 1.07 | 98 | 1010.9 |
| 20260509194221 | 12 | 244 | 1.6 | 1.6 | 0.13 | 1.04 | 1.04 | 98 | 1010.8 |
| 20260509193718 | 12 | 240 | 0.0 | 1.6 | 0.13 | 1.04 | 1.04 | 98 | 1010.8 |
| 20260509193217 | 12 | 111 | 1.6 | 1.6 | 0.18 | 1.02 | 1.02 | 98 | 1011.0 |
| 20260509192714 | 12 | 85 | 0.0 | 1.6 | 0.18 | 1.02 | 1.02 | 98 | 1011.0 |
| 20260509192209 | 12 | 33 | 0.0 | 1.6 | 0.18 | 0.99 | 0.99 | 98 | 1011.1 |
| 20260509191705 | 12 | 241 | 0.0 | 0.0 | 0.30 | 0.99 | 0.99 | 98 | 1011.2 |
| 20260509191201 | 12 | 40 | 0.0 | 0.0 | 0.13 | 0.97 | 0.97 | 98 | 1011.4 |
| 20260509190657 | 12 | 251 | 0.0 | 0.0 | 0.00 | 0.94 | 0.94 | 98 | 1011.4 |
| 20260509190155 | 12 | 252 | 0.0 | 0.0 | 0.18 | 0.94 | 0.94 | 98 | 1011.4 |
| 20260509185653 | 12 | 246 | 0.0 | 0.0 | 0.18 | 0.94 | 0.94 | 98 | 1011.4 |
| 20260509185148 | 12 | 230 | 1.6 | 1.6 | 0.13 | 0.91 | 0.91 | 98 | 1011.6 |
| 20260509184646 | 11 | 318 | 0.0 | 0.0 | 0.13 | 0.91 | 0.91 | 97 | 1011.4 |
| 20260509184143 | 11 | 318 | 0.0 | 0.0 | 0.18 | 0.89 | 0.89 | 97 | 1011.5 |
| 20260509183640 | 11 | 318 | 0.0 | 0.0 | 0.18 | 0.89 | 0.89 | 97 | 1011.5 |
| 20260509183140 | 11 | 318 | 0.0 | 0.0 | 0.13 | 0.86 | 0.86 | 97 | 1011.4 |
| 20260509182636 | 11 | 318 | 0.0 | 0.0 | 0.13 | 0.86 | 0.86 | 97 | 1011.6 |
| 20260509182134 | 11 | 318 | 0.0 | 0.0 | 0.18 | 0.84 | 0.84 | 97 | 1011.4 |
| 20260509181632 | 11 | 318 | 0.0 | 0.0 | 0.30 | 0.84 | 0.84 | 97 | 1011.4 |
| 20260509181129 | 11 | 318 | 0.0 | 0.0 | 0.13 | 0.81 | 0.81 | 96 | 1011.2 |
| 20260509180625 | 11 | 318 | 0.0 | 0.0 | 0.30 | 0.81 | 0.81 | 96 | 1011.3 |
| 20260509180122 | 11 | 318 | 0.0 | 0.0 | 0.30 | 0.79 | 0.79 | 96 | 1011.3 |
| 20260509175617 | 11 | 318 | 0.0 | 0.0 | 0.30 | 0.76 | 0.76 | 96 | 1011.3 |
| 20260509175115 | 11 | 318 | 0.0 | 0.0 | 0.18 | 0.74 | 0.74 | 96 | 1011.4 |
| 20260509174611 | 11 | 318 | 0.0 | 0.0 | 0.13 | 0.71 | 0.71 | 96 | 1011.5 |
| 20260509174106 | 11 | 318 | 0.0 | 0.0 | 0.13 | 0.71 | 0.71 | 96 | 1011.5 |
| 20260509173601 | -17 | 0.0 | 0.0 | 0.00 | 0.00 | 0.00 | 1011.3 | ||
| 20260509173058 | 11 | 318 | 0.0 | 0.0 | 0.18 | 0.69 | 0.69 | 96 | 1011.3 |
| 20260509172555 | 11 | 318 | 0.0 | 0.0 | 0.18 | 0.69 | 0.69 | 96 | 1011.3 |
| 20260509172050 | 11 | 318 | 0.0 | 0.0 | 0.00 | 0.66 | 0.66 | 97 | 1011.4 |
| 20260509171546 | 11 | 318 | 0.0 | 0.0 | 0.00 | 0.66 | 0.66 | 96 | 1011.2 |
| 20260509171043 | 11 | 318 | 0.0 | 0.0 | 0.18 | 0.66 | 0.66 | 96 | 1011.3 |
| 20260509170539 | 11 | 318 | 0.0 | 0.0 | 0.18 | 0.66 | 0.66 | 96 | 1011.3 |
| 20260509170035 | 11 | 318 | 0.0 | 0.0 | 0.00 | 0.64 | 0.64 | 96 | 1011.4 |
| 20260509165534 | 11 | 318 | 0.0 | 0.0 | 0.00 | 0.64 | 0.64 | 95 | 1011.4 |
| 20260509165029 | 10 | 318 | 0.0 | 0.0 | 0.00 | 0.64 | 0.64 | 95 | 1011.6 |
| 20260509164526 | 10 | 279 | 0.0 | 1.6 | 0.00 | 0.64 | 0.64 | 95 | 1011.7 |
| 20260509164021 | 10 | 279 | 0.0 | 0.0 | 0.13 | 0.64 | 0.64 | 96 | 1011.8 |
| 20260509163519 | 10 | 279 | 0.0 | 0.0 | 0.13 | 0.64 | 0.64 | 95 | 1011.9 |
| 20260509163014 | 10 | 279 | 0.0 | 0.0 | 0.18 | 0.61 | 0.61 | 96 | 1012.0 |
| 20260509162512 | 10 | 279 | 0.0 | 0.0 | 0.18 | 0.61 | 0.61 | 96 | 1012.0 |
| 20260509162008 | 10 | 277 | 0.0 | 0.0 | 0.00 | 0.58 | 0.58 | 96 | 1012.2 |
| 20260509161504 | 10 | 282 | 0.0 | 0.0 | 0.13 | 0.58 | 0.58 | 96 | 1012.2 |
| 20260509160959 | 10 | 282 | 0.0 | 0.0 | 0.30 | 0.58 | 0.58 | 96 | 1012.4 |
| 20260509160455 | 10 | 282 | 0.0 | 0.0 | 0.18 | 0.56 | 0.56 | 96 | 1012.3 |
| 20260509155956 | 10 | 282 | 0.0 | 0.0 | 0.18 | 0.56 | 0.56 | 95 | 1012.5 |
| 20260509155452 | 10 | 278 | 0.0 | 0.0 | 0.13 | 0.53 | 0.53 | 95 | 1012.4 |
| 20260509154949 | 10 | 318 | 1.6 | 1.6 | 0.13 | 0.53 | 0.53 | 95 | 1012.5 |
| 20260509154445 | 10 | 319 | 0.0 | 0.0 | 0.00 | 0.51 | 0.51 | 95 | 1012.4 |
| 20260509153943 | 10 | 320 | 0.0 | 0.0 | 0.18 | 0.51 | 0.51 | 95 | 1012.7 |
| 20260509153439 | 10 | 320 | 0.0 | 0.0 | 0.18 | 0.51 | 0.51 | 95 | 1012.4 |
| 20260509152937 | 10 | 320 | 0.0 | 0.0 | 0.00 | 0.48 | 0.48 | 95 | 1012.4 |
| 20260509152432 | 10 | 318 | 0.0 | 0.0 | 0.13 | 0.48 | 0.48 | 95 | 1012.5 |
| 20260509151930 | 10 | 324 | 0.0 | 0.0 | 0.13 | 0.48 | 0.48 | 95 | 1012.4 |
| 20260509151426 | 10 | 316 | 0.0 | 0.0 | 0.13 | 0.48 | 0.48 | 95 | 1012.3 |
| 20260509150924 | 10 | 279 | 0.0 | 0.0 | 0.00 | 0.46 | 0.46 | 95 | 1012.7 |
| 20260509150421 | 10 | 278 | 0.0 | 0.0 | 0.00 | 0.46 | 0.46 | 95 | 1012.8 |
| 20260509145920 | 10 | 276 | 0.0 | 1.6 | 0.18 | 0.46 | 0.46 | 95 | 1012.8 |
| 20260509145419 | 10 | 300 | 0.0 | 0.0 | 0.18 | 0.46 | 0.46 | 95 | 1012.6 |
| 20260509144915 | 9 | 299 | 0.0 | 0.0 | 0.00 | 0.43 | 0.43 | 95 | 1012.6 |
| 20260509144412 | 9 | 332 | 0.0 | 0.0 | 0.00 | 0.43 | 0.43 | 96 | 1012.7 |
| 20260509143909 | 10 | 258 | 0.0 | 0.0 | 0.13 | 0.43 | 0.43 | 96 | 1013.0 |
| 20260509143407 | 10 | 255 | 0.0 | 0.0 | 0.13 | 0.43 | 0.43 | 96 | 1012.7 |
| 20260509142903 | 9 | 256 | 0.0 | 0.0 | 0.00 | 0.41 | 0.41 | 96 | 1012.9 |
| 20260509142359 | 8 | 255 | 0.0 | 0.0 | 0.00 | 0.41 | 0.41 | 96 | 1012.7 |
| 20260509141855 | 8 | 254 | 0.0 | 0.0 | 0.00 | 0.41 | 0.41 | 97 | 1012.8 |
| 20260509141352 | 8 | 231 | 0.0 | 0.0 | 0.00 | 0.41 | 0.41 | 96 | 1012.9 |
| 20260509140849 | 8 | 223 | 1.6 | 1.6 | 0.18 | 0.41 | 0.41 | 97 | 1012.8 |
| 20260509140346 | 8 | 222 | 0.0 | 0.0 | 0.18 | 0.41 | 0.41 | 97 | 1012.8 |
| 20260509135844 | 8 | 218 | 1.6 | 1.6 | 0.18 | 0.38 | 0.38 | 97 | 1012.7 |
| 20260509135341 | 8 | 219 | 0.0 | 0.0 | 0.18 | 0.38 | 0.38 | 97 | 1013.2 |
| 20260509134838 | 8 | 233 | 0.0 | 0.0 | 0.00 | 0.36 | 0.36 | 97 | 1013.0 |
| 20260509134335 | 8 | 231 | 1.6 | 1.6 | 0.00 | 0.36 | 0.36 | 97 | 1013.0 |
| 20260509133832 | 8 | 239 | 1.6 | 1.6 | 0.00 | 0.36 | 0.36 | 97 | 1013.0 |
| 20260509133329 | 8 | 293 | 0.0 | 0.0 | 0.00 | 0.36 | 0.36 | 97 | 1012.9 |
| 20260509132828 | 8 | 240 | 0.0 | 0.0 | 0.00 | 0.36 | 0.36 | 97 | 1013.1 |
| 20260509132326 | 8 | 254 | 0.0 | 1.6 | 0.00 | 0.36 | 0.36 | 97 | 1013.1 |
| 20260509131822 | 8 | 307 | 0.0 | 0.0 | 0.00 | 0.36 | 0.36 | 97 | 1013.1 |
| 20260509131319 | 8 | 266 | 0.0 | 0.0 | 0.00 | 0.36 | 0.36 | 97 | 1012.7 |